User: anonymous
Location: Caltech
(34.1382°N, 118.1253°W)
Time: 09:01:33
(UTC-07:00)
Language:

Cosmos 1975 - Orbit

View from above orbital plane
View from above orbital plane
View from above satellite
View from above satellite

Ground track
Ground track

The orbit data is extracted from the following two-line orbital elements,

1 19573U 88093A   14233.45009684  .00001009  00000-0  77583-4 0  2810
2 19573 082.5195 260.8872 0015787 196.0155 164.0572 15.00578956404981
Epoch (UTC): 21 August 2014 10:48:08
Eccentricity: 0.0015787
inclination: 82.5195°
perigee height: 554 km
apogee height: 576 km
right ascension of ascending node: 260.8872°
argument of perigee: 196.0155°
revolutions per day: 15.00578956
mean anomaly at epoch: 164.0572°
orbit number at epoch: 40498

The dashed part of the orbit path shows where the satellite is in the earth's shadow,  

DLR